Regional Weather Roundup
Issued by NWS Albany, NY

Home | Current Version | Previous Version | Text Only | Print | Product List | Glossary On
Versions: 1 2 3 4 5 6 7 8 9 10 11 12 13 14 15 16 17 18 19 20 21 22 23 24 25 26 27 28 29 30 31 32 33 34 35 36 37 38 39 40 41 42 43 44 45 46 47 48 49 50
318
ASUS41 KALY 221410
RWRALY

NEW YORK STATE HOURLY WEATHER ROUNDUP
NATIONAL WEATHER SERVICE ALBANY NY
900 AM EST SUN JAN 22 2017

NOTE: "FAIR" INDICATES FEW OR NO CLOUDS BELOW 12,000 FEET WITH NO
SIGNIFICANT WEATHER AND/OR NO OBSTRUCTIONS TO VISIBILITY.

NYZ032-033-038>043-046>054-057>066-NYZ062>081-082-084-221500-
EAST


CITY           SKY/WX    TMP DP  RH WIND       PRES   REMARKS
ALBANY         FOG       40  37  89 N6        29.76F VSB 1
GLENS FALLS    CLOUDY    39  36  89 N7        29.79S FOG     WCI  34
POUGHKEEPSIE   FOG       40  40 100 CALM      29.72F VSB<1/4
NEWBURGH       MOSUNNY   41  41 100 CALM      29.73F FOG
MONTGOMERY     FOG       41  40  96 CALM      29.72S VSB 1/2
WHITE PLAINS   FOG       42  42 100 E5        29.72F VSB 1/4
ISLIP          FOG       44  44 100 NE6       29.73F VSB 1
NEW YORK CITY  FOG       44  43  96 NE8       29.73S VSB<1/4
CENTRAL PARK   FOG       44  44 100 E5        29.75S VSB 1/2
$$

NYZ005>009-017-018-044>046-055-056-221500-
CENTRAL


CITY           SKY/WX    TMP DP  RH WIND       PRES   REMARKS
FULTON         FOG       37  36  96 CALM      29.69F VSB 1/4
SYRACUSE       PTSUNNY   38  38 100 E5        29.70S FOG     WCI  34
ROME           PTSUNNY   42  41  96 E10       29.73S
ELMIRA         FOG       40  38  93 SW7       29.71R VSB 1/4
BINGHAMTON     FOG       36  36 100 E3        29.67S VSB<1/4
MONTICELLO     CLOUDY    43  41  93 SE5       29.70F
$$

NYZ026>034-041>043-087-221500-
NORTH


CITY           SKY/WX    TMP DP  RH WIND       PRES   REMARKS
WATERTOWN      CLOUDY    37  37 100 NE12      29.72F FOG     WCI  29
FORT DRUM      NOT AVBL
OGDENSBURG     CLOUDY    35  35  98 NE9G17    29.79R FOG     WCI  28
MASSENA        CLOUDY    34  31  88 NE13      29.85R WCI  25
SARANAC LAKE   CLOUDY    35  33  92 NE8       29.73S WCI  29
PLATTSBURGH    CLOUDY    33  32  96 N7        29.84R WCI  27
$$

NYZ001>004-010>016-019>021-085-221500-
WEST


CITY           SKY/WX    TMP DP  RH WIND       PRES   REMARKS
NIAGARA FALLS  FOG       39  36  89 E5        29.69R VSB<1/4
BUFFALO        FOG       39  38  96 E5        29.68R VSB 1/4
DUNKIRK        CLOUDY    39  37  92 N3        29.67R
JAMESTOWN      CLOUDY    46  45  93 S5        29.67S
WELLSVILLE     FOG       46  45  96 CALM      29.70R VSB 1/2
ROCHESTER      FOG       40  40 100 CALM      29.71R VSB 1/16
PENN YAN       CLOUDY    42  38  85 SW6       29.69R
$$

             KEY
       WCI = WIND CHILL INDEX
       VSB = VISIBILITY
       HX  = HEAT INDEX
$$




USA.gov is the U.S. government's official web portal to all federal, state and local government web resources and services.